CAPE
0 0 0 0 0 0 0 0 0 3 10 33 49 46 43 27 13 1 22 15 7 7 0 2 0 2 18 0 3 0 1 0 6 17 12 18 18 27 13 6 22 6 3 2 7 4 0 0 0 0 2 0 0 0
0 0 0 0 0 0 0 0 0 0 1 2 3 21 35 36 3 0 5 1 18 33 0 0 0 0 0 0 9 0 7 19 96 11 3 10 23 1 0 9 0 7 0 0 0 0 0 0 0 0 0 0 0 0
0 0 0 0 0 0 0 0 0 0 1 1 3 6 11 25 13 0 2 3 5 5 0 0 0 0 0 0 28 17 26 14 11 6 32 8 15 2 22 8 0 0 0 0 0 0 0 0 0 0 0 0 0 0
0 0 0 0 0 0 0 0 0 0 0 1 0 3 14 10 27 0 2 0 3 2 2 0 0 0 0 0 0 0 2 2 4 0 3 4 3 0 0 0 0 0 0 0 0 0 0 0 0 0 0 0 0 0
0 0 0 0 0 0 1 1 0 0 0 0 0 0 10 11 10 0 0 0 1 0 1 0 0 0 0 0 0 0 0 0 3 20 1 1 0 0 0 0 0 0 0 0 0 0 0 0 0 0 0 0 2 0
0 3 3 0 0 1 3 3 3 2 1 0 0 0 1 3 0 1 0 0 0 7 24 0 0 0 0 0 0 0 0 0 2 0 0 0 0 0 0 0 0 0 0 0 0 0 0 0 0 0 1 3 0 4
3 0 0 0 3 5 5 5 5 3 2 1 0 0 1 0 0 0 0 0 4 8 33 6 0 0 0 0 0 0 0 0 0 0 0 0 0 0 0 0 0 0 0 0 0 0 0 0 4 6 2 1 0 0
8 4 12 18 14 6 6 7 6 3 2 3 1 0 0 0 0 0 0 0 17 28 34 17 0 0 0 0 0 0 0 0 0 0 0 0 0 0 0 0 0 0 0 0 0 0 1 2 4 2 4 2 0 0
28 29 19 16 14 13 10 6 5 2 3 1 0 0 0 0 0 0 0 0 0 1 3 1 1 0 0 0 0 0 0 0 0 0 0 0 0 0 0 0 0 0 0 0 0 0 1 2 2 0 0 1 1 0
19 15 13 14 13 10 8 7 5 1 1 0 0 0 0 0 0 0 0 0 0 0 9 3 0 0 0 0 0 0 0 0 0 0 0 0 0 0 0 0 0 0 0 0 0 0 2 5 2 3 4 3 2 3
9 20 14 4 8 6 9 5 9 6 0 0 0 0 0 0 0 0 0 0 0 0 0 0 0 1 0 3 0 0 0 0 0 0 2 0 0 0 0 0 0 0 0 0 0 4 1 3 4 4 4 1 3 4
2 2 2 2 2 7 4 6 15 0 0 0 15 14 2 0 0 0 0 0 0 0 0 0 0 0 0 0 0 0 0 0 0 0 0 0 0 0 0 0 0 0 0 0 0 2 3 0 6 7 6 6 5 2
5 7 6 1 5 3 4 4 25 15 0 1 5 14 0 0 0 0 0 0 0 0 0 0 0 0 0 0 0 0 0 0 0 0 0 0 0 0 0 0 0 0 0 0 0 0 0 4 5 0 4 0 3 2
5 5 8 7 5 2 1 2 19 0 0 1 0 0 0 0 0 0 0 0 0 0 0 0 0 0 0 0 0 0 0 0 0 0 0 0 0 0 0 0 0 0 0 0 0 0 0 3 0 0 1 2 4 1
8 7 6 1 0 5 6 13 5 0 0 1 0 0 0 0 0 0 0 0 0 0 0 0 0 0 0 0 0 0 0 0 0 0 0 0 3 0 0 0 0 0 0 0 0 0 0 0 0 2 1 1 0 0
8 4 0 4 7 5 1 0 0 0 0 3 0 0 0 0 0 0 0 0 0 0 0 0 0 0 0 0 3 0 0 0 0 0 1 1 1 0 0 0 0 0 0 0 0 1 1 0 1 9 2 0 1 2
12 1 0 0 3 0 0 0 0 8 0 4 0 0 0 0 0 0 0 0 0 0 0 0 0 0 0 1 0 0 0 0 0 0 5 8 6 3 1 1 0 0 0 0 0 0 0 1 2 0 2 1 2 1
9 0 0 0 0 0 0 0 0 1 2 0 0 0 0 0 0 0 0 0 0 0 0 2 0 1 0 0 0 0 0 0 1 0 1 0 0 1 4 2 1 0 0 0 0 0 0 0 0 1 1 0 0 0
3 0 3 6 8 6 0 0 0 1 0 0 0 0 0 0 0 0 0 0 0 0 1 2 1 1 0 0 0 0 0 0 1 1 1 1 0 0 0 0 3 4 2 1 1 0 0 0 0 0 0 0 0 1
17 13 11 14 17 14 2 0 0 5 1 0 0 0 0 0 0 0 0 0 0 0 14 20 0 0 0 0 0 0 0 1 0 0 0 0 0 0 0 1 1 1 3 5 2 1 1 0 0 0 0 0 1 1
6 0 0 1 10 4 0 0 0 0 0 0 0 0 0 0 0 0 0 0 0 0 0 0 0 0 0 0 0 0 0 0 0 0 1 2 1 1 0 1 3 3 4 6 8 5 2 3 1 0 1 1 0 0
0 0 14 3 0 1 3 0 0 0 0 0 0 0 0 0 0 0 0 0 0 0 0 0 0 0 0 0 0 0 0 0 0 0 0 0 1 1 1 2 3 3 3 5 6 13 6 1 3 2 0 0 0 0
2 0 5 5 8 2 0 0 8 1 0 0 0 0 0 0 0 0 0 0 0 0 0 0 0 0 0 0 0 0 0 0 0 0 0 0 2 3 4 3 2 0 1 2 5 7 3 1 0 0 0 0 0 0
2 29 0 0 0 0 0 0 0 3 8 0 1 0 0 0 0 0 0 0 0 0 0 0 0 0 0 1 0 0 0 0 0 0 0 0 0 2 3 2 3 3 6 4 4 3 2 2 1 0 0 0 0 0
2 0 0 0 0 0 0 0 0 7 0 0 0 0 0 0 0 0 0 0 0 0 0 0 0 0 0 0 1 0 0 0 0 0 0 0 1 0 0 1 2 3 4 2 2 1 1 1 1 0 0 0 0 0
0 0 1 0 0 0 0 0 0 0 0 0 0 0 0 0 0 0 0 0 0 0 0 0 0 0 0 0 0 0 0 0 0 0 0 0 1 1 0 0 0 0 2 3 2 1 0 0 0 0 0 0 0 0
0 0 0 0 0 0 0 0 0 0 0 0 0 0 0 0 0 0 0 0 0 0 0 0 0 0 0 0 0 0 0 0 0 0 0 1 0 0 0 0 0 0 0 0 0 0 0 0 0 0 0 0 0 0
0 0 0 0 0 0 0 0 0 0 0 0 0 0 0 0 0 0 0 0 0 0 0 0 0 0 0 0 0 0 0 0 0 0 0 0 0 0 0 0 0 0 0 0 0 0 0 0 0 0 0 0 0 0
0 0 0 0 0 0 0 0 0 0 0 0 0 0 0 0 0 0 0 0 0 0 0 0 0 0 0 0 0 0 0 0 0 0 0 0 0 0 0 0 0 0 0 0 0 0 0 0 0 0 0 0 0 0
0 0 0 0 0 0 0 0 0 0 0 0 0 0 0 0 0 0 0 0 0 0 0 0 0 0 0 0 0 0 0 0 0 0 0 0 0 0 0 0 0 0 0 0 0 0 0 0 0 0 0 0 0 0
0 0 0 0 0 0 0 0 0 0 0 0 0 0 0 0 0 0 0 0 0 0 0 0 0 0 0 0 0 0 0 0 0 0 0 0 0 0 0 0 0 0 0 0 0 0 0 0 0 0 0 0 0 0
0 0 0 0 0 0 0 0 0 0 0 0 0 0 0 0 0 0 0 0 0 0 0 0 0 0 0 0 0 0 0 0 0 0 0 0 0 0 0 0 0 0 0 0 0 0 0 0 0 0 0 0 0 0
0 0 0 0 0 0 0 0 0 0 0 0 0 0 0 0 0 0 0 0 0 0 0 0 0 0 0 0 0 0 0 0 0 0 0 0 0 0 0 0 0 0 0 0 0 0 0 0 0 0 0 0 0 0
CIN
0 0 0 0 0 0 0 0 0 0 0 0 0 -1 -2 0 0 -2 -2 -2 -2 0 0 -8 0 -1 -3 0 -2 0 -1 0 0 0 0 -1 0 -5 -6 -3 -1 -2 -2 0 -1 -2 -1 0 0 -4 -7 0 0 0
0 0 0 0 0 0 0 0 0 0 0 0 0 0 0 0 -1 0 -1 -1 0 0 0 0 0 0 0 -3 -6 -1 -12 -1 -3 0 0 -9 0 0 0 -2 0 0 0 -12 0 0 0 0 0 0 0 0 0 0
0 0 0 0 0 0 0 0 0 0 0 0 0 0 0 0 0 -1 -6 -1 0 0 0 0 0 0 0 0 -22 0 0 0 0 0 0 0 -1 -1 -1 0 0 0 0 0 0 0 0 0 0 0 0 0 0 0
0 0 0 0 0 0 0 0 0 0 0 0 0 0 0 0 0 0 -1 -3 0 -1 0 0 0 0 0 0 0 0 -14 -6 -3 0 -2 -5 0 0 0 0 0 0 0 0 0 0 0 0 0 0 0 0 0 0
0 0 0 0 0 0 0 0 0 0 0 0 0 0 -4 0 -1 0 0 -13 -18 0 0 0 0 0 0 0 0 0 0 0 0 -1 -5 -1 0 0 0 0 0 0 0 0 0 0 0 0 0 0 0 0 0 0
0 -1 0 0 0 0 0 0 0 0 0 0 0 0 0 -2 0 -27 0 0 0 -3 0 0 0 0 0 0 0 0 0 0 0 0 0 0 0 0 0 0 0 0 0 0 0 0 0 0 0 0 -1 0 0 0
-3 0 0 0 0 0 0 0 0 0 0 0 0 0 -1 0 0 0 0 0 -30 -15 0 -2 0 0 0 0 0 0 0 0 0 0 0 0 0 0 0 0 0 0 0 0 0 0 0 0 0 0 0 -12 -2 0
-1 -1 0 0 0 0 0 0 0 0 0 0 0 0 0 0 0 0 0 0 -24 -3 0 0 0 0 0 0 0 0 0 0 0 0 0 0 0 0 0 0 0 0 0 0 0 0 0 0 0 0 0 0 0 0
0 0 0 0 0 0 0 0 0 0 0 0 0 0 0 0 0 0 0 -2 0 -13 -3 0 0 0 0 0 0 0 0 0 0 0 0 0 0 0 0 0 0 0 0 0 0 0 0 0 0 0 0 0 0 0
0 0 0 0 0 0 0 0 0 0 0 0 0 0 0 0 0 0 0 0 0 0 -5 0 0 0 0 0 0 0 0 0 0 0 0 0 0 0 0 0 0 0 0 0 0 0 0 0 0 0 0 0 0 0
0 -1 -1 0 0 0 0 0 0 0 0 0 0 0 0 0 0 0 0 0 0 0 0 0 0 0 0 -10 0 0 0 0 0 0 0 0 0 0 0 0 0 0 0 0 0 -1 -1 -1 0 0 0 0 0 0
0 -1 -1 0 0 0 0 0 0 0 0 0 0 -7 -12 0 0 0 0 0 0 0 0 0 0 0 0 0 0 0 0 0 0 0 0 0 0 0 0 0 0 0 0 0 0 -1 -3 -1 -1 0 0 0 0 0
0 0 0 0 0 0 0 0 0 0 0 -6 0 0 0 0 0 0 0 0 0 0 0 0 0 0 0 0 0 0 0 0 0 0 0 0 0 0 0 0 0 0 0 0 0 0 -3 -5 -5 -4 0 0 0 0
0 0 0 0 0 0 0 0 0 0 0 0 0 0 0 0 0 0 0 0 0 0 0 0 0 0 0 0 0 0 0 0 0 0 0 0 0 0 0 0 0 0 0 0 0 0 0 -10 -3 -3 -1 0 0 0
0 0 0 0 0 0 0 0 -1 0 0 0 0 0 0 0 0 0 0 0 0 0 0 0 0 0 0 0 0 0 0 0 0 0 0 0 0 0 0 0 0 0 0 0 0 0 0 -1 0 -7 -2 0 0 0
0 0 0 -3 -4 -1 -2 0 0 0 0 0 0 0 0 0 0 0 0 0 0 0 0 0 0 0 0 0 -1 0 0 0 0 0 0 0 0 0 0 0 0 0 0 0 0 0 0 -1 -1 0 -14 0 0 0
0 -2 0 -1 -3 0 0 0 -5 -4 0 0 0 0 0 0 0 0 0 0 0 0 0 0 0 0 0 0 0 0 0 0 0 0 0 0 0 0 0 0 0 0 0 0 0 0 0 -1 -2 0 0 -2 0 0
-1 0 0 0 0 0 0 0 0 -1 0 0 0 0 0 0 0 0 0 0 0 0 0 -5 0 0 0 0 0 0 0 0 0 0 0 0 0 0 0 0 0 0 0 0 0 0 0 0 0 0 0 0 0 0
-11 0 -6 -2 -1 -1 0 0 0 0 0 0 0 0 0 0 0 0 0 0 0 0 -2 -3 -3 0 0 0 0 0 0 0 0 0 0 0 0 0 0 0 0 0 0 0 0 0 0 0 0 0 0 0 0 0
-1 -2 0 0 0 0 0 0 -1 0 0 0 0 0 0 0 0 0 0 0 0 0 -1 0 0 0 0 0 0 0 0 0 0 0 0 0 0 0 0 0 0 0 0 0 0 0 0 0 0 0 -2 -4 -2 0
-3 0 -5 -3 -1 0 0 0 0 0 0 0 0 0 0 0 0 0 0 0 0 0 0 0 0 0 0 0 0 0 0 0 0 0 0 0 0 0 0 0 0 0 0 0 0 0 0 0 0 0 0 0 0 0
0 -3 0 -3 0 0 0 0 0 0 0 0 0 0 0 0 0 0 0 0 0 0 0 0 0 0 0 0 0 0 0 0 0 0 0 0 0 0 0 0 0 0 0 0 0 0 0 0 0 0 0 0 0 0
-3 -4 0 0 0 -1 0 0 -1 -6 0 0 0 0 0 0 0 0 0 0 0 0 0 0 0 0 0 0 0 0 0 0 0 0 0 0 0 0 0 0 0 0 0 0 0 0 0 0 0 0 0 0 0 0
0 0 0 0 0 0 0 0 0 0 0 -2 -1 0 0 0 0 0 0 0 0 0 0 0 0 0 0 0 0 0 0 0 0 0 0 0 0 0 0 0 0 0 0 0 0 0 0 0 0 0 0 0 0 0
0 0 0 0 0 0 0 0 -1 0 0 0 0 0 0 0 0 0 0 0 0 0 0 0 0 0 0 0 0 0 0 0 0 0 0 0 0 0 0 0 0 0 0 0 0 0 0 0 0 0 0 0 0 0
0 0 0 0 0 0 0 0 0 0 0 0 0 0 0 0 0 0 0 0 0 0 0 0 0 0 0 0 0 0 0 0 0 0 0 0 0 0 0 0 0 0 0 0 0 0 0 0 0 0 0 0 0 0
0 0 0 0 0 0 0 0 0 0 0 0 0 0 0 0 0 0 0 0 0 0 0 0 0 0 0 0 0 0 0 0 0 0 0 0 0 0 0 0 0 0 0 0 0 0 0 0 0 0 0 0 0 0
0 0 0 0 0 0 0 0 0 0 0 0 0 0 0 0 0 0 0 0 0 0 0 0 0 0 0 0 0 0 0 0 0 0 0 0 0 0 0 0 0 0 0 0 0 0 0 0 0 0 0 0 0 0
0 0 0 0 0 0 0 0 0 0 0 0 0 0 0 0 0 0 0 0 0 0 0 0 0 0 0 0 0 0 0 0 0 0 0 0 0 0 0 0 0 0 0 0 0 0 0 0 0 0 0 0 0 0
0 0 0 0 0 0 0 0 0 0 0 0 0 0 0 0 0 0 0 0 0 0 0 0 0 0 0 0 0 0 0 0 0 0 0 0 0 0 0 0 0 0 0 0 0 0 0 0 0 0 0 0 0 0
0 0 0 0 0 0 0 0 0 0 0 0 0 0 0 0 0 0 0 0 0 0 0 0 0 0 0 0 0 0 0 0 0 0 0 0 0 0 0 0 0 0 0 0 0 0 0 0 0 0 0 0 0 0
0 0 0 0 0 0 0 0 0 0 0 0 0 0 0 0 0 0 0 0 0 0 0 0 0 0 0 0 0 0 0 0 0 0 0 0 0 0 0 0 0 0 0 0 0 0 0 0 0 0 0 0 0 0
0 0 0 0 0 0 0 0 0 0 0 0 0 0 0 0 0 0 0 0 0 0 0 0 0 0 0 0 0 0 0 0 0 0 0 0 0 0 0 0 0 0 0 0 0 0 0 0 0 0 0 0 0 0
Wind_Speed
4 6 7 8 10 12 13 15 16 16 15 15 15 16 14 12 13 3 2 5 2 1 3 6 6 4 2 3 4 1 2 2 3 6 5 4 5 5 4 3 1 2 4 3 4 4 8 3 4 4 3 5 6 8
4 5 6 7 9 11 13 15 15 16 16 16 15 15 15 12 12 4 2 2 2 2 3 2 5 7 6 5 4 3 2 1 3 3 2 3 3 3 5 4 3 4 3 3 7 5 3 4 3 2 4 4 6 11
2 4 5 7 9 11 12 14 15 16 16 16 16 14 13 13 9 3 1 0 0 1 3 2 7 5 6 12 5 4 3 2 2 2 3 2 0 1 3 3 3 3 4 2 3 1 4 5 2 3 6 8 11 12
2 4 6 8 10 11 13 14 15 15 16 17 17 16 11 9 11 3 1 1 1 2 2 5 1 6 5 5 11 11 6 2 1 1 2 2 2 2 2 1 2 1 4 4 4 5 3 4 4 7 9 8 13 15
3 5 6 8 10 12 13 14 16 17 17 17 18 17 14 7 5 2 0 2 1 1 3 6 8 1 4 3 6 7 6 4 3 2 2 2 1 1 1 1 3 4 4 3 3 3 2 5 9 13 11 13 15 15
3 5 8 9 11 12 14 15 16 17 18 19 19 18 15 4 4 1 1 1 1 1 3 4 3 3 4 3 4 5 4 2 2 2 2 2 2 2 2 2 4 4 4 3 1 1 5 8 9 7 12 14 13 13
5 7 8 10 12 13 14 15 17 18 19 19 19 18 11 2 2 2 4 2 2 1 2 4 5 3 4 2 2 2 2 1 2 1 2 2 1 2 2 4 5 6 3 2 1 2 3 5 8 13 12 13 14 14
8 9 10 11 13 14 15 15 17 19 20 20 19 15 2 3 3 2 2 4 2 1 1 3 4 4 4 2 0 1 1 0 1 1 1 2 1 1 5 6 1 4 4 3 2 3 5 8 9 11 12 13 14 14
8 9 10 12 13 14 15 16 17 19 21 20 14 2 3 3 1 2 8 4 1 1 0 1 3 3 4 1 1 0 1 1 1 2 2 2 2 6 6 5 7 7 4 3 1 3 4 8 10 11 12 12 13 14
9 10 11 11 12 14 15 16 17 18 20 10 4 3 3 1 9 3 5 3 3 2 1 2 1 4 2 2 1 1 1 1 1 0 1 3 5 6 4 2 6 7 5 3 1 3 6 8 9 11 12 11 11 12
11 10 11 13 14 14 15 16 15 15 8 4 4 1 3 7 2 3 1 1 1 1 2 2 3 3 1 2 2 0 0 1 1 1 2 2 3 3 2 4 5 6 4 2 1 1 2 5 7 10 12 12 12 12
13 13 12 13 14 13 14 15 7 3 2 3 4 4 1 3 2 2 1 1 2 1 1 1 1 3 2 0 1 1 1 1 3 2 1 3 3 5 2 1 3 3 2 1 1 3 4 5 5 7 10 11 12 12
10 11 11 12 12 12 12 13 8 7 4 1 1 1 2 2 4 3 2 2 1 2 1 1 2 1 1 1 1 1 1 3 2 1 3 4 4 4 3 3 3 2 1 1 3 2 3 5 3 4 8 9 11 9
11 11 12 13 13 13 14 12 7 3 1 1 1 4 4 3 4 4 3 2 2 2 1 1 1 1 1 1 1 0 2 2 2 2 4 1 7 6 4 3 3 2 2 2 2 3 4 3 5 4 4 6 8 9
11 10 12 13 15 7 3 4 6 1 2 2 2 5 6 4 2 1 1 1 2 2 2 0 1 1 1 1 2 1 2 3 4 3 2 5 10 4 3 3 3 3 2 2 2 3 3 5 7 6 2 5 6 5
9 9 4 2 3 7 8 3 1 2 1 3 5 3 2 1 3 1 3 3 2 3 2 1 0 2 3 3 4 6 3 5 2 1 4 7 7 3 4 4 4 3 4 3 3 3 4 4 5 6 2 2 5 4
6 3 2 3 6 10 8 2 2 4 4 5 5 3 3 1 4 4 4 3 4 3 2 2 4 8 2 3 3 4 4 1 2 3 3 7 9 7 6 5 4 5 6 5 5 5 5 3 2 3 4 5 4 3
3 3 4 5 5 3 1 3 2 4 7 6 4 3 3 2 3 2 4 3 4 3 4 3 2 4 5 4 3 3 3 3 0 2 3 7 8 9 6 6 5 6 8 7 7 6 5 4 3 2 4 4 4 5
4 4 7 8 4 2 1 2 3 5 6 2 3 2 2 3 3 1 3 4 3 2 3 2 5 4 5 3 4 3 2 1 2 3 4 3 5 7 8 8 6 7 8 9 8 7 6 6 4 2 1 2 3 3
11 11 10 8 5 2 3 3 2 4 3 3 1 2 3 3 1 2 4 4 5 4 5 6 6 4 4 3 3 3 3 3 2 3 3 2 2 6 7 7 6 9 8 8 7 8 6 5 4 4 2 1 3 4
3 4 7 5 2 3 2 2 3 3 3 2 1 1 3 1 2 3 3 5 3 5 5 5 3 2 2 3 4 4 4 3 2 1 4 6 6 5 6 6 7 7 7 7 7 7 8 6 4 2 2 2 1 2
3 4 2 3 3 4 4 4 3 2 2 2 2 2 3 2 3 3 3 3 4 5 5 4 3 4 6 6 6 4 5 5 3 1 1 2 3 5 7 7 7 8 8 8 8 7 5 5 5 4 3 1 1 2
4 3 0 2 5 6 5 2 3 3 3 2 0 2 3 2 1 2 3 4 4 2 2 2 3 4 6 5 6 5 4 4 3 1 1 2 3 4 5 6 6 7 8 8 6 3 4 6 5 4 3 2 2 3
4 3 5 4 5 4 2 3 3 3 3 2 2 4 3 2 2 2 4 3 3 1 3 5 6 5 4 5 3 3 3 3 3 2 1 2 3 4 5 4 5 5 6 6 4 5 5 5 5 4 3 2 3 3
5 6 4 6 4 4 5 3 3 3 4 5 3 4 2 1 1 3 4 4 2 4 4 5 4 4 4 3 3 3 4 3 2 1 1 1 1 2 1 2 4 6 7 6 6 6 5 4 4 3 3 3 4 5
6 7 9 8 4 5 6 4 5 5 2 3 4 1 1 1 2 7 4 2 3 4 6 7 7 5 3 3 4 5 4 3 3 1 1 1 1 2 1 1 3 4 6 5 4 4 4 3 3 4 3 4 3 4
7 8 5 4 3 3 2 1 2 2 4 5 2 2 2 3 6 5 2 2 2 2 4 5 6 5 4 5 3 3 4 3 2 1 1 1 2 2 1 2 2 2 4 4 3 3 3 3 3 3 4 3 4 4
5 3 7 5 3 2 4 3 4 6 4 3 4 5 6 7 5 2 3 1 1 2 4 3 3 3 4 5 5 6 4 2 4 4 5 4 3 3 3 3 3 4 3 3 3 3 3 3 3 3 3 3 5 5
3 3 4 4 3 4 6 7 6 4 3 5 6 5 5 3 2 2 2 2 3 4 5 5 2 4 5 5 4 2 4 6 6 4 4 2 1 1 1 1 2 2 3 4 4 4 4 4 5 5 7 7 5 5
4 4 4 5 5 8 5 6 3 3 2 3 2 0 1 2 3 2 3 4 5 6 7 6 7 7 7 7 5 3 2 2 3 3 3 4 5 2 2 1 2 2 2 3 3 4 6 5 7 6 6 5 5 4
3 4 3 4 4 4 3 1 0 1 2 3 2 4 6 3 3 3 6 5 5 5 6 6 7 5 8 6 6 6 4 4 5 5 3 1 4 4 3 2 1 1 2 3 3 4 4 6 6 6 6 7 7 6
3 5 5 4 4 3 2 2 2 3 2 2 4 2 1 1 4 4 1 3 4 6 7 8 8 8 8 4 4 3 4 5 7 5 8 5 5 4 3 2 2 3 4 5 5 4 6 6 6 6 5 6 6 6
1 2 3 2 2 3 1 1 1 4 2 2 3 2 3 3 6 2 2 2 1 2 5 6 5 4 11 10 9 6 4 5 8 7 6 6 7 5 4 3 3 4 6 5 5 5 6 5 5 5 5 5 5 5
Wind_Direction
78 70 42 25 14 12 12 8 5 360 355 353 351 355 354 2 8 9 295 193 166 236 258 203 225 242 155 188 209 225 306 229 208 212 203 195 227 203 197 187 230 195 166 184 174 218 265 166 122 220 17 353 343 337
103 53 33 22 13 8 6 5 2 357 353 349 342 341 351 351 358 28 306 3 236 229 272 289 261 244 215 199 179 207 250 302 329 279 266 202 183 164 191 207 166 221 208 180 208 214 252 222 223 23 357 348 340 321
72 28 19 8 3 360 359 357 356 353 349 347 344 335 330 346 354 69 325 119 135 332 280 297 258 268 212 225 185 198 206 203 239 342 321 1 133 176 188 207 205 215 176 229 187 141 236 233 249 91 356 322 315 313
14 3 359 352 352 350 348 348 346 345 344 343 342 338 323 317 339 80 10 316 339 282 285 281 244 290 266 196 201 209 214 171 257 7 291 288 290 232 226 13 240 206 163 212 243 270 271 135 80 332 322 328 328 330
352 347 346 344 343 343 341 340 340 339 339 338 338 337 330 302 349 69 255 229 251 83 296 292 306 261 1 171 190 192 210 237 287 273 257 276 289 246 147 227 231 189 203 211 278 84 340 290 326 323 323 331 327 320
330 332 331 332 334 335 336 336 335 333 332 332 332 334 328 286 110 91 344 314 223 238 301 304 300 315 9 77 127 160 167 161 206 234 272 281 260 244 275 251 261 216 201 177 162 298 273 280 295 314 309 316 322 328
295 306 315 321 325 328 331 332 331 330 329 327 326 327 324 208 113 140 180 235 238 188 292 297 326 321 333 39 59 85 105 173 207 222 235 268 279 210 237 239 236 219 155 158 228 316 335 354 321 325 344 335 335 324
285 297 308 315 319 323 326 330 329 328 326 324 323 318 317 108 74 17 321 345 10 257 285 316 287 316 4 352 16 358 129 189 185 287 257 240 235 230 256 241 107 141 153 132 80 18 327 336 334 339 339 337 332 329
282 301 310 312 315 320 325 327 327 325 324 327 324 29 56 45 55 240 305 340 98 167 303 304 295 287 346 43 316 69 7 242 44 247 244 230 208 231 236 208 188 176 178 165 304 322 343 338 346 345 343 340 328 324
288 295 301 308 316 320 320 323 325 324 327 337 31 45 354 276 299 331 16 27 15 352 253 269 115 276 329 356 1 312 9 22 286 332 293 234 261 283 298 240 148 152 148 125 43 354 353 346 350 346 338 331 319 317
284 292 299 305 311 315 320 320 319 327 356 26 22 355 253 317 38 26 40 74 297 251 192 238 216 284 359 306 316 3 295 341 320 330 291 279 278 334 352 114 136 137 133 124 88 66 5 345 341 337 335 326 326 324
277 286 293 300 303 313 320 328 333 51 238 246 285 257 299 20 33 67 312 293 232 260 199 231 266 230 285 315 287 38 335 326 261 353 318 274 271 337 278 177 147 143 116 48 8 14 8 337 332 330 330 331 331 322
277 282 289 290 297 305 309 317 334 335 3 318 209 266 12 306 35 144 240 251 263 203 227 0 320 331 286 58 57 0 345 240 332 349 252 241 300 317 219 186 176 183 205 321 339 46 360 333 322 327 333 336 333 335
271 279 287 292 292 292 294 293 325 7 23 257 227 275 170 268 241 197 194 181 213 173 184 180 269 317 352 319 129 241 257 287 287 249 243 269 336 311 209 186 173 219 245 265 289 308 306 322 317 301 334 333 341 343
270 279 287 290 293 289 255 305 321 120 155 226 199 232 217 228 241 241 242 235 204 161 150 159 69 340 305 299 218 204 251 250 227 239 268 338 332 305 205 201 216 228 251 265 321 2 349 345 333 313 328 354 355 345
265 293 264 220 39 355 331 340 107 126 225 226 231 245 202 99 266 250 205 243 166 130 114 97 149 289 255 209 207 216 213 225 246 324 337 337 330 288 251 248 246 254 263 250 224 264 296 312 324 329 323 10 358 1
241 224 184 349 343 320 301 197 184 215 225 224 236 215 185 222 206 202 173 203 149 134 190 137 204 218 239 229 232 197 219 205 321 337 355 350 338 302 263 253 246 253 254 244 222 241 266 285 314 341 337 352 330 332
214 212 226 286 320 289 353 183 224 236 241 227 228 213 203 215 182 196 199 163 152 181 157 217 186 215 219 222 224 227 204 178 347 7 347 346 1 357 340 308 296 286 273 253 226 230 240 248 235 266 307 332 338 353
200 192 241 261 257 308 249 226 201 256 239 222 240 204 216 225 220 205 166 169 175 150 157 198 241 217 220 210 202 201 211 163 266 300 303 313 16 0 350 349 324 294 270 251 241 230 222 212 200 188 281 330 348 348
232 243 251 247 231 194 250 242 230 261 261 240 224 211 224 223 211 186 178 159 156 161 203 222 217 208 201 195 184 159 143 168 221 293 303 323 343 343 337 332 331 325 316 290 243 231 216 197 197 189 180 49 357 345
208 240 235 176 165 226 255 257 250 230 285 257 252 219 252 213 223 202 194 150 176 210 220 219 209 204 162 138 142 138 147 156 162 226 303 311 331 330 331 336 337 322 318 316 291 250 211 204 183 173 138 119 54 328
210 205 131 162 179 189 248 214 245 290 257 259 263 210 246 236 225 206 131 181 223 222 204 184 192 163 163 168 165 162 149 145 148 197 258 327 327 336 331 329 327 319 311 304 303 284 226 146 138 128 137 150 53 355
141 117 137 219 200 209 253 154 227 210 245 258 328 257 250 237 214 133 236 220 249 227 185 168 162 148 142 130 129 129 133 144 141 144 41 9 323 324 330 335 338 327 321 314 294 262 132 111 109 109 104 54 1 16
84 202 193 208 196 237 191 220 218 239 217 222 227 261 238 231 159 236 246 233 225 165 181 165 139 112 105 131 147 153 139 136 135 116 79 8 356 346 341 353 357 352 347 352 38 60 65 76 87 82 78 61 16 32
174 217 188 220 229 201 196 211 217 206 237 202 219 277 264 150 247 256 238 250 201 192 177 161 159 148 146 147 146 148 154 160 147 116 132 68 322 323 306 19 33 22 9 27 39 48 49 50 53 58 50 29 10 10
212 210 191 194 210 198 188 186 203 212 190 220 231 279 46 113 243 249 236 243 208 181 179 177 167 152 158 152 152 175 185 166 144 163 171 25 287 286 292 5 19 29 12 13 22 38 47 42 27 33 25 9 347 344
210 214 204 214 195 174 186 198 180 158 187 213 212 167 154 227 240 252 284 221 219 215 176 164 163 161 156 150 122 128 134 146 147 131 109 98 57 5 51 98 78 13 341 0 12 21 16 8 2 358 348 351 357 355
203 171 173 181 188 163 160 191 196 204 216 200 142 183 203 208 246 238 227 247 189 108 112 113 118 133 134 142 135 133 116 112 108 112 102 82 57 48 62 77 60 32 8 338 333 346 345 335 332 329 338 33 71 49
195 191 136 159 150 193 211 194 212 215 200 167 179 205 227 220 228 211 203 175 147 136 130 138 114 103 87 81 82 106 138 149 139 149 191 204 268 220 41 60 54 31 5 342 342 356 20 28 40 44 81 88 78 63
206 165 167 180 194 213 220 187 214 231 219 202 207 204 258 250 232 166 156 158 166 195 193 174 154 162 161 159 158 165 185 208 195 167 188 207 213 162 156 114 65 35 5 14 22 25 30 68 83 69 66 61 48 43
128 154 186 194 225 240 228 239 269 215 221 230 241 231 244 276 292 220 203 208 192 137 143 157 171 178 160 158 168 163 207 204 209 221 218 183 151 144 140 135 85 67 74 72 68 68 75 69 69 71 64 59 45 39
133 174 170 200 257 279 10 171 244 232 267 231 241 205 18 238 256 260 217 162 152 184 193 169 172 190 194 169 150 144 147 144 163 175 168 152 144 135 129 117 117 111 98 89 85 83 76 76 67 58 55 48 38 29
148 160 168 184 326 310 308 157 286 300 281 265 264 222 218 210 236 291 35 22 229 221 191 194 188 150 166 167 168 158 144 129 131 139 136 128 128 131 123 117 116 110 105 99 88 85 80 82 74 69 60 46 32 16